Terminal Aerodrome Forecast
Issued by NWS Pittsburgh, PA

Current Version | Previous Version | Graphics & Text | Print | Product List | Glossary On
Versions: 1 2 3 4 5 6 7 8 9 10 11 12 13 14 15 16 17 18 19 20 21 22 23 24 25 26 27 28 29 30 31 32 33 34 35 36
646
FTUS41 KPBZ 022059 AAA
TAFPIT
TAF AMD
KPIT 022059Z 0221/0324 36010G16KT P6SM SCT025 BKN120
      TEMPO 0223/0302 BKN025
     FM030200 35005KT P6SM VCSH BKN025=

USA.gov is the U.S. government's official web portal to all federal, state and local government web resources and services.